| time (UTC) | temp C | wind direction | speed KPH | gust KPH | rain 1hr cm | rain 24hr cm | rain mn cm | humidity % | barometer mb |
| 20260504031529 | 17 | 95 | 4.8 | 9.7 | 0.00 | 0.00 | 0.00 | 69 | 1029.5 |
| 20260504030040 | 17 | 62 | 1.6 | 8.0 | 0.00 | 0.00 | 0.00 | 68 | 1029.5 |
| 20260504024526 | 17 | 75 | 3.2 | 6.4 | 0.00 | 0.00 | 0.00 | 66 | 1029.5 |
| 20260504023027 | 17 | 81 | 1.6 | 6.4 | 0.00 | 0.00 | 0.00 | 64 | 1029.5 |
| 20260504021523 | 17 | 151 | 0.0 | 3.2 | 0.00 | 0.00 | 0.00 | 62 | 1029.5 |
| 20260504020021 | 17 | 57 | 1.6 | 4.8 | 0.00 | 0.00 | 0.00 | 64 | 1029.7 |
| 20260504014533 | 17 | 87 | 0.0 | 4.8 | 0.00 | 0.00 | 0.00 | 62 | 1029.8 |
| 20260504013018 | 17 | 32 | 0.0 | 6.4 | 0.00 | 0.00 | 0.00 | 62 | 1029.9 |
| 20260504011517 | 16 | 82 | 3.2 | 8.0 | 0.00 | 0.00 | 0.00 | 63 | 1030.0 |
| 20260504010015 | 16 | 65 | 1.6 | 9.7 | 0.00 | 0.00 | 0.00 | 64 | 1030.3 |
| 20260504004513 | 16 | 77 | 1.6 | 6.4 | 0.00 | 0.00 | 0.00 | 64 | 1030.5 |
| 20260504003024 | 16 | 68 | 1.6 | 8.0 | 0.00 | 0.00 | 0.00 | 65 | 1030.6 |
| 20260504001509 | 17 | 94 | 0.0 | 4.8 | 0.00 | 0.00 | 0.00 | 61 | 1030.8 |
| 20260504000006 | 17 | 273 | 0.0 | 0.0 | 0.00 | 0.00 | 0.00 | 61 | 1031.1 |
| 20260503234511 | 16 | 319 | 0.0 | 1.6 | 0.00 | 0.00 | 0.00 | 62 | 1031.3 |
| 20260503233002 | 16 | 212 | 0.0 | 4.8 | 0.00 | 0.00 | 0.00 | 58 | 1031.4 |
| 20260503231558 | 15 | 249 | 0.0 | 1.6 | 0.00 | 0.00 | 0.00 | 60 | 1031.5 |
| 20260503224550 | 13 | 245 | 0.0 | 0.0 | 0.00 | 0.00 | 0.00 | 65 | 1031.6 |
| 20260503223051 | 12 | 245 | 0.0 | 1.6 | 0.00 | 0.00 | 0.00 | 68 | 1031.6 |
| 20260503221544 | 11 | 252 | 0.0 | 3.2 | 0.00 | 0.00 | 0.00 | 71 | 1031.8 |
| 20260503220037 | 10 | 250 | 0.0 | 4.8 | 0.00 | 0.00 | 0.00 | 75 | 1031.8 |
| 20260503214534 | 9 | 239 | 1.6 | 6.4 | 0.00 | 0.00 | 0.00 | 77 | 1031.8 |
| 20260503213029 | 8 | 244 | 1.6 | 8.0 | 0.00 | 0.00 | 0.00 | 82 | 1032.0 |
| 20260503211524 | 7 | 253 | 1.6 | 4.8 | 0.00 | 0.00 | 0.00 | 85 | 1032.0 |
| 20260503210026 | 6 | 243 | 3.2 | 4.8 | 0.00 | 0.00 | 0.00 | 87 | 1032.1 |
| 20260503204517 | 6 | 263 | 0.0 | 1.6 | 0.00 | 0.00 | 0.00 | 91 | 1032.2 |
| 20260503203019 | 5 | 264 | 0.0 | 0.0 | 0.00 | 0.00 | 0.00 | 93 | 1032.1 |
| 20260503201510 | 3 | 264 | 0.0 | 1.6 | 0.00 | 0.00 | 0.00 | 93 | 1031.9 |
| 20260503200009 | 3 | 270 | 0.0 | 0.0 | 0.00 | 0.00 | 0.00 | 94 | 1031.9 |
| 20260503194510 | 2 | 270 | 0.0 | 0.0 | 0.00 | 0.00 | 0.00 | 94 | 1031.8 |
| 20260503193009 | 1 | 270 | 0.0 | 0.0 | 0.00 | 0.00 | 0.00 | 93 | 1031.6 |
| 20260503191507 | 1 | 270 | 0.0 | 0.0 | 0.00 | 0.00 | 0.00 | 93 | 1031.5 |
| 20260503190005 | 1 | 270 | 0.0 | 0.0 | 0.00 | 0.00 | 0.00 | 93 | 1031.5 |
| 20260503184507 | 1 | 270 | 0.0 | 0.0 | 0.00 | 0.00 | 0.00 | 93 | 1031.5 |
| 20260503183002 | 1 | 270 | 0.0 | 0.0 | 0.00 | 0.00 | 0.00 | 93 | 1031.4 |
| 20260503181502 | 1 | 270 | 0.0 | 3.2 | 0.00 | 0.00 | 0.00 | 93 | 1031.3 |
| 20260503180100 | 2 | 264 | 0.0 | 0.0 | 0.00 | 0.00 | 0.00 | 92 | 1031.3 |
| 20260503174558 | 2 | 263 | 0.0 | 0.0 | 0.00 | 0.00 | 0.00 | 93 | 1031.2 |
| 20260503173117 | 2 | 264 | 0.0 | 0.0 | 0.00 | 0.00 | 0.00 | 93 | 1031.3 |
| 20260503171552 | 2 | 264 | 0.0 | 1.6 | 0.00 | 0.00 | 0.00 | 93 | 1031.5 |
| 20260503081502 | 6 | 258 | 0.0 | 1.6 | 0.00 | 0.00 | 0.00 | 88 | 1030.7 |
| 20260503071616 | 8 | 63 | 0.0 | 1.6 | 0.00 | 0.00 | 0.00 | 84 | 1030.3 |
| 20260503070107 | 9 | 63 | 0.0 | 0.0 | 0.00 | 0.00 | 0.00 | 84 | 1030.1 |
| 20260503054546 | 13 | 63 | 0.0 | 0.0 | 0.00 | 0.00 | 0.00 | 74 | 1029.5 |
| 20260503053046 | 15 | 63 | 0.0 | 0.0 | 0.00 | 0.00 | 0.00 | 73 | 1029.4 |
| 20260503051545 | 16 | 63 | 0.0 | 0.0 | 0.00 | 0.00 | 0.00 | 70 | 1029.4 |
| 20260503050045 | 17 | 63 | 0.0 | 3.2 | 0.00 | 0.00 | 0.00 | 66 | 1029.3 |
| 20260503044544 | 17 | 68 | 0.0 | 0.0 | 0.00 | 0.00 | 0.00 | 62 | 1029.2 |
| 20260503043047 | 17 | 72 | 1.6 | 3.2 | 0.00 | 0.00 | 0.00 | 61 | 1029.2 |
| 20260503041546 | 17 | 75 | 0.0 | 3.2 | 0.00 | 0.00 | 0.00 | 61 | 1029.2 |
| 20260503040053 | 17 | 84 | 0.0 | 1.6 | 0.00 | 0.00 | 0.00 | 62 | 1029.3 |
| 20260503034559 | 17 | 85 | 0.0 | 3.2 | 0.00 | 0.00 | 0.00 | 62 | 1029.2 |
| 20260503033044 | 17 | 106 | 0.0 | 1.6 | 0.00 | 0.00 | 0.00 | 61 | 1029.4 |